Time,TemperatureF,DewpointF,PressureIn,WindDirection,WindDirectionDegrees,WindSpeedMPH,WindSpeedGustMPH,Humidity,HourlyPrecipIn,Conditions,Clouds,dailyrainin,SoftwareType,DateUTC
2013-09-04 00:12:00,66.0,53.0,-100.00,North,0,16.0,22.0,65,-99.99,,,-99.99,,2013-09-04 05:12:00,
2013-09-04 00:23:00,66.0,53.0,-100.00,North,0,16.0,22.0,65,-99.99,,,-99.99,,2013-09-04 05:23:00,
2013-09-04 00:43:00,64.0,47.0,-100.00,North,0,14.0,21.0,54,-99.99,,,-99.99,,2013-09-04 05:43:00,
2013-09-04 00:53:00,64.0,47.0,-100.00,North,0,14.0,21.0,54,-99.99,,,-99.99,,2013-09-04 05:53:00,
2013-09-04 01:12:00,63.0,46.0,-100.00,NNE,15,13.0,18.0,55,-99.99,,,-99.99,,2013-09-04 06:12:00,
2013-09-04 01:22:00,63.0,46.0,-100.00,NNE,15,13.0,18.0,55,-99.99,,,-99.99,,2013-09-04 06:22:00,
2013-09-04 01:42:00,61.0,47.0,-100.00,North,0,9.0,14.0,61,-99.99,,,-99.99,,2013-09-04 06:42:00,
2013-09-04 01:52:00,61.0,47.0,-100.00,North,0,9.0,14.0,61,-99.99,,,-99.99,,2013-09-04 06:52:00,
2013-09-04 02:11:00,59.0,47.0,-100.00,North,0,11.0,17.0,64,-99.99,,,-99.99,,2013-09-04 07:11:00,
2013-09-04 02:22:00,59.0,47.0,-100.00,North,0,11.0,17.0,64,-99.99,,,-99.99,,2013-09-04 07:22:00,
2013-09-04 02:42:00,58.0,47.0,-100.00,North,5,11.0,17.0,67,-99.99,,,-99.99,,2013-09-04 07:42:00,
2013-09-04 02:52:00,58.0,47.0,-100.00,North,5,11.0,17.0,67,-99.99,,,-99.99,,2013-09-04 07:52:00,
2013-09-04 03:12:00,57.0,47.0,-100.00,North,0,10.0,12.0,70,-99.99,,,-99.99,,2013-09-04 08:12:00,
2013-09-04 03:22:00,57.0,47.0,-100.00,North,0,10.0,12.0,70,-99.99,,,-99.99,,2013-09-04 08:22:00,
2013-09-04 03:43:00,56.0,47.0,-100.00,North,0,7.0,14.0,71,-99.99,,,-99.99,,2013-09-04 08:43:00,
2013-09-04 03:52:00,56.0,47.0,-100.00,North,0,7.0,14.0,71,-99.99,,,-99.99,,2013-09-04 08:52:00,
2013-09-04 04:12:00,55.0,48.0,-100.00,North,355,7.0,12.0,76,-99.99,,,-99.99,,2013-09-04 09:12:00,
2013-09-04 04:22:00,55.0,48.0,-100.00,North,355,7.0,12.0,76,-99.99,,,-99.99,,2013-09-04 09:22:00,
2013-09-04 04:43:00,54.0,48.0,-100.00,North,0,9.0,12.0,81,-99.99,,,-99.99,,2013-09-04 09:43:00,
2013-09-04 04:53:00,54.0,48.0,-100.00,North,0,9.0,12.0,81,-99.99,,,-99.99,,2013-09-04 09:53:00,
2013-09-04 05:12:00,53.0,49.0,-100.00,North,0,9.0,12.0,86,-99.99,,,-99.99,,2013-09-04 10:12:00,
2013-09-04 05:23:00,53.0,49.0,-100.00,North,0,9.0,12.0,86,-99.99,,,-99.99,,2013-09-04 10:23:00,
2013-09-04 05:42:00,52.0,49.0,-100.00,North,0,7.0,12.0,90,-99.99,,,-99.99,,2013-09-04 10:42:00,
2013-09-04 05:52:00,52.0,49.0,-100.00,North,0,7.0,12.0,90,-99.99,,,-99.99,,2013-09-04 10:52:00,
2013-09-04 06:12:00,51.0,49.0,-100.00,North,350,7.0,12.0,93,-99.99,,,-99.99,,2013-09-04 11:12:00,
2013-09-04 06:22:00,51.0,49.0,-100.00,North,350,7.0,12.0,93,-99.99,,,-99.99,,2013-09-04 11:22:00,
2013-09-04 06:42:00,50.0,48.0,-100.00,North,355,6.0,9.0,95,-99.99,,,-99.99,,2013-09-04 11:42:00,
2013-09-04 06:52:00,50.0,48.0,-100.00,North,355,6.0,9.0,95,-99.99,,,-99.99,,2013-09-04 11:52:00,
2013-09-04 07:12:00,49.0,48.0,-100.00,North,355,6.0,9.0,96,-99.99,,,-99.99,,2013-09-04 12:12:00,
2013-09-04 07:21:00,49.0,48.0,-100.00,North,355,6.0,9.0,96,-99.99,,,-99.99,,2013-09-04 12:21:00,
2013-09-04 07:42:00,49.0,48.0,-100.00,North,350,6.0,9.0,98,-99.99,,,-99.99,,2013-09-04 12:42:00,
2013-09-04 07:52:00,49.0,48.0,-100.00,North,350,6.0,9.0,98,-99.99,,,-99.99,,2013-09-04 12:52:00,
2013-09-04 08:12:00,49.0,48.0,-100.00,North,350,6.0,9.0,98,-99.99,,,-99.99,,2013-09-04 13:12:00,
2013-09-04 08:22:00,49.0,48.0,-100.00,North,350,6.0,9.0,98,-99.99,,,-99.99,,2013-09-04 13:22:00,
2013-09-04 08:42:00,49.0,49.0,-100.00,North,0,6.0,7.0,98,-99.99,,,-99.99,,2013-09-04 13:42:00,
2013-09-04 08:52:00,49.0,49.0,-100.00,North,0,6.0,7.0,98,-99.99,,,-99.99,,2013-09-04 13:52:00,
2013-09-04 09:11:00,51.0,50.0,-100.00,North,0,5.0,8.0,95,-99.99,,,-99.99,,2013-09-04 14:11:00,
2013-09-04 09:21:00,51.0,50.0,-100.00,North,0,5.0,8.0,95,-99.99,,,-99.99,,2013-09-04 14:21:00,
2013-09-04 09:42:00,54.0,50.0,-100.00,NNE,20,8.0,11.0,85,-99.99,,,-99.99,,2013-09-04 14:42:00,
2013-09-04 09:52:00,54.0,50.0,-100.00,NNE,20,8.0,11.0,85,-99.99,,,-99.99,,2013-09-04 14:52:00,
2013-09-04 10:12:00,57.0,50.0,-100.00,NE,35,6.0,9.0,78,-99.99,,,-99.99,,2013-09-04 15:12:00,
2013-09-04 10:22:00,57.0,50.0,-100.00,NE,35,6.0,9.0,78,-99.99,,,-99.99,,2013-09-04 15:22:00,
2013-09-04 10:43:00,59.0,50.0,-100.00,NNE,25,7.0,9.0,71,-99.99,,,-99.99,,2013-09-04 15:43:00,
2013-09-04 10:53:00,59.0,50.0,-100.00,NNE,25,7.0,9.0,71,-99.99,,,-99.99,,2013-09-04 15:53:00,
2013-09-04 11:12:00,62.0,51.0,-100.00,NNE,15,6.0,9.0,67,-99.99,,,-99.99,,2013-09-04 16:12:00,
2013-09-04 11:23:00,62.0,51.0,-100.00,NNE,15,6.0,9.0,67,-99.99,,,-99.99,,2013-09-04 16:23:00,
2013-09-04 11:43:00,64.0,51.0,-100.00,NE,40,6.0,11.0,62,-99.99,,,-99.99,,2013-09-04 16:43:00,
2013-09-04 11:53:00,64.0,51.0,-100.00,NE,40,6.0,11.0,62,-99.99,,,-99.99,,2013-09-04 16:53:00,
2013-09-04 12:13:00,67.0,51.0,-100.00,North,0,5.0,9.0,58,-99.99,,,-99.99,,2013-09-04 17:13:00,
2013-09-04 12:23:00,67.0,51.0,-100.00,North,0,5.0,9.0,58,-99.99,,,-99.99,,2013-09-04 17:23:00,
2013-09-04 12:42:00,68.0,48.0,-100.00,NNE,15,7.0,11.0,49,-99.99,,,-99.99,,2013-09-04 17:42:00,
2013-09-04 12:53:00,68.0,48.0,-100.00,NNE,15,7.0,11.0,49,-99.99,,,-99.99,,2013-09-04 17:53:00,
2013-09-04 13:13:00,68.0,45.0,-100.00,NNE,30,7.0,12.0,45,-99.99,,,-99.99,,2013-09-04 18:13:00,
2013-09-04 13:22:00,68.0,45.0,-100.00,NNE,30,7.0,12.0,45,-99.99,,,-99.99,,2013-09-04 18:22:00,
2013-09-04 13:42:00,69.0,46.0,-100.00,NNE,20,6.0,11.0,44,-99.99,,,-99.99,,2013-09-04 18:42:00,
2013-09-04 13:52:00,69.0,46.0,-100.00,NNE,20,6.0,11.0,44,-99.99,,,-99.99,,2013-09-04 18:52:00,
2013-09-04 14:11:00,68.0,46.0,-100.00,North,350,7.0,10.0,45,-99.99,,,-99.99,,2013-09-04 19:11:00,
2013-09-04 14:22:00,68.0,46.0,-100.00,North,350,7.0,10.0,45,-99.99,,,-99.99,,2013-09-04 19:22:00,
2013-09-04 14:42:00,68.0,45.0,-100.00,NNE,25,5.0,8.0,45,-99.99,,,-99.99,,2013-09-04 19:42:00,
2013-09-04 14:52:00,68.0,45.0,-100.00,NNE,25,5.0,8.0,45,-99.99,,,-99.99,,2013-09-04 19:52:00,
2013-09-04 15:11:00,68.0,46.0,-100.00,NNE,20,4.0,7.0,46,-99.99,,,-99.99,,2013-09-04 20:11:00,
2013-09-04 15:22:00,68.0,46.0,-100.00,NNE,20,4.0,7.0,46,-99.99,,,-99.99,,2013-09-04 20:22:00,
2013-09-04 15:43:00,70.0,47.0,-100.00,North,0,2.0,9.0,44,-99.99,,,-99.99,,2013-09-04 20:43:00,
2013-09-04 15:53:00,70.0,47.0,-100.00,North,0,2.0,9.0,44,-99.99,,,-99.99,,2013-09-04 20:53:00,
2013-09-04 16:12:00,70.0,47.0,-100.00,North,0,4.0,7.0,44,-99.99,,,-99.99,,2013-09-04 21:12:00,
2013-09-04 16:22:00,70.0,47.0,-100.00,North,0,4.0,7.0,44,-99.99,,,-99.99,,2013-09-04 21:22:00,
2013-09-04 16:44:00,72.0,48.0,-100.00,NNE,20,6.0,12.0,42,-99.99,,,-99.99,,2013-09-04 21:44:00,
2013-09-04 16:54:00,72.0,48.0,-100.00,NNE,20,6.0,12.0,42,-99.99,,,-99.99,,2013-09-04 21:54:00,
2013-09-04 17:14:00,72.0,48.0,-100.00,NNE,20,7.0,12.0,43,-99.99,,,-99.99,,2013-09-04 22:14:00,
2013-09-04 17:23:00,72.0,48.0,-100.00,NNE,20,7.0,12.0,43,-99.99,,,-99.99,,2013-09-04 22:23:00,
2013-09-04 17:43:00,72.0,46.0,-100.00,North,0,5.0,7.0,40,-99.99,,,-99.99,,2013-09-04 22:43:00,
2013-09-04 17:55:00,72.0,46.0,-100.00,North,0,5.0,7.0,40,-99.99,,,-99.99,,2013-09-04 22:55:00,
2013-09-04 18:13:00,71.0,47.0,-100.00,North,350,6.0,11.0,42,-99.99,,,-99.99,,2013-09-04 23:13:00,
2013-09-04 18:22:00,71.0,47.0,-100.00,North,350,6.0,11.0,42,-99.99,,,-99.99,,2013-09-04 23:22:00,
2013-09-04 18:42:00,69.0,46.0,-100.00,NNE,20,6.0,8.0,44,-99.99,,,-99.99,,2013-09-04 23:42:00,
2013-09-04 18:52:00,69.0,46.0,-100.00,NNE,20,6.0,8.0,44,-99.99,,,-99.99,,2013-09-04 23:52:00,
2013-09-04 19:12:00,70.0,47.0,-100.00,North,0,4.0,7.0,45,-99.99,,,-99.99,,2013-09-05 00:12:00,
2013-09-04 19:22:00,70.0,47.0,-100.00,North,0,4.0,7.0,45,-99.99,,,-99.99,,2013-09-05 00:22:00,
2013-09-04 19:43:00,67.0,47.0,-100.00,North,0,4.0,6.0,49,-99.99,,,-99.99,,2013-09-05 00:43:00,
2013-09-04 19:52:00,67.0,47.0,-100.00,North,0,4.0,6.0,49,-99.99,,,-99.99,,2013-09-05 00:52:00,
2013-09-04 20:12:00,66.0,46.0,-100.00,North,10,4.0,6.0,49,-99.99,,,-99.99,,2013-09-05 01:12:00,
2013-09-04 20:22:00,66.0,46.0,-100.00,North,10,4.0,6.0,49,-99.99,,,-99.99,,2013-09-05 01:22:00,
2013-09-04 20:42:00,65.0,46.0,-100.00,North,5,4.0,6.0,50,-99.99,,,-99.99,,2013-09-05 01:42:00,
2013-09-04 20:52:00,65.0,46.0,-100.00,North,5,4.0,6.0,50,-99.99,,,-99.99,,2013-09-05 01:52:00,
2013-09-04 21:12:00,64.0,46.0,-100.00,North,350,4.0,6.0,53,-99.99,,,-99.99,,2013-09-05 02:12:00,
2013-09-04 21:22:00,64.0,46.0,-100.00,North,350,4.0,6.0,53,-99.99,,,-99.99,,2013-09-05 02:22:00,
2013-09-04 21:52:00,63.0,46.0,-100.00,NNE,30,4.0,7.0,54,-99.99,,,-99.99,,2013-09-05 02:52:00,
2013-09-04 22:12:00,62.0,46.0,-100.00,NE,35,3.0,6.0,56,-99.99,,,-99.99,,2013-09-05 03:12:00,
2013-09-04 22:22:00,62.0,46.0,-100.00,NE,35,3.0,6.0,56,-99.99,,,-99.99,,2013-09-05 03:22:00,
2013-09-04 22:45:00,61.0,46.0,-100.00,NE,35,4.0,6.0,59,-99.99,,,-99.99,,2013-09-05 03:45:00,
2013-09-04 22:54:00,61.0,46.0,-100.00,NE,35,4.0,6.0,59,-99.99,,,-99.99,,2013-09-05 03:54:00,
2013-09-04 23:13:00,58.0,46.0,-100.00,NE,45,2.0,4.0,64,-99.99,,,-99.99,,2013-09-05 04:13:00,
2013-09-04 23:24:00,58.0,46.0,-100.00,NE,45,2.0,4.0,64,-99.99,,,-99.99,,2013-09-05 04:24:00,
2013-09-04 23:44:00,58.0,47.0,-100.00,North,-999,-999.0,-999.0,68,-99.99,,,-99.99,,2013-09-05 04:44:00,
2013-09-04 23:53:00,58.0,47.0,-100.00,North,-999,-999.0,-999.0,68,-99.99,,,-99.99,,2013-09-05 04:53:00,